Home   Weather   Málaga   Past weeks

Flag for Spain Past Weather in Málaga, Spain — Yesterday and Last 2 Weeks

Now
79 °F

Passing clouds.


Feels Like: 80 °F
Forecast: 62 / 79 °F
Wind: 9 mph from Southeast

Location: Malaga / Aeropuerto

Current Time: Sep 27, 2016 at 3:59:53 PM

Latest Report: Sep 27, 2016 at 3:00 PM


Visibility: N/A

Pressure: 30.18 "Hg

Humidity: 58%

Dew Point: 63 °F

Location of MálagaLocation

Past Weather in Málaga — Graph

°F

Málaga Temperature Yesterday

Maximum temperature yesterday: 81 °F (at 2:30 PM)
Minimum temperature yesterday: 64 °F (at 2:30 AM)
Average temperature yesterday: 72 °F

High & Low Weather Summary for the Past Weeks

 TemperatureHumidityPressure
High88 °F (Sep 22, 6:00 PM)94% (Sep 18, 11:30 PM)30.21 "Hg (Sep 18, 11:30 PM)
Low59 °F (Sep 17, 7:30 AM)21% (Sep 15, 5:30 PM)29.89 "Hg (Sep 13, 4:30 PM)
Average72 °F64%30.06 "Hg
* Reported Sep 12 2:00 PM — Sep 27 2:30 PM, Málaga, Weather by CustomWeather, © 2016

Note: Actual official high and low records may vary slightly from our data, if they occured in-between our weather recording intervals... More about our weather records

Advertising

Málaga Weather History for the Previous 24 Hours

Scroll right to see more
 ConditionsComfort  
Time TempWeatherWind HumidityBarometerVisibility
2:30 PM
Tue, Sep 27
79 °FPassing clouds.7 mph58%30.18 "HgN/A
2:00 PM79 °FPassing clouds.8 mph58%30.21 "HgN/A
1:30 PM79 °FPassing clouds.8 mph58%30.21 "HgN/A
1:00 PM77 °FPassing clouds.7 mph69%30.21 "HgN/A
12:30 PM77 °FPassing clouds.7 mph65%30.21 "HgN/A
12:00 PM77 °FPassing clouds.7 mph65%30.21 "HgN/A
11:30 AM77 °FPassing clouds.5 mph65%30.21 "HgN/A
11:00 AM75 °FPassing clouds.1 mph69%30.21 "HgN/A
10:30 AM73 °FPassing clouds.3 mph69%30.21 "HgN/A
10:00 AM72 °FSunny.2 mph73%30.18 "Hg10 mi
9:30 AM70 °FPassing clouds.3 mph78%30.18 "HgN/A
9:00 AM68 °FSunny.5 mph78%30.18 "Hg10 mi
8:30 AM64 °FSunny.5 mph83%30.15 "Hg10 mi
8:00 AM66 °FClear.6 mph83%30.15 "Hg10 mi
7:30 AM68 °FClear.6 mph78%30.15 "Hg10 mi
7:00 AM68 °FClear.2 mph78%30.12 "Hg10 mi
6:30 AM66 °FClear.3 mph78%30.12 "Hg10 mi
6:00 AM68 °FClear.2 mph78%30.12 "Hg10 mi
5:30 AM70 °FClear.3 mph73%30.12 "Hg10 mi
5:00 AM70 °FClear.7 mph73%30.12 "Hg10 mi
4:30 AM70 °FClear.2 mph78%30.12 "Hg10 mi
4:00 AM72 °FClear.2 mph73%30.12 "Hg10 mi
3:30 AM72 °FClear.2 mph73%30.15 "Hg10 mi
3:00 AM72 °FClear.1 mph78%30.15 "Hg10 mi
2:30 AM72 °FClear.No wind73%30.15 "Hg10 mi
2:00 AM72 °FClear.No wind78%30.15 "Hg10 mi
1:30 AM72 °FClear.1 mph78%30.15 "Hg10 mi
1:00 AM72 °FClear.No wind78%30.15 "Hg10 mi
12:30 AM72 °FClear.No wind83%30.15 "Hg10 mi
12:00 AM72 °FClear.2 mph83%30.15 "Hg10 mi
11:30 PM
Mon, Sep 26
73 °FClear.5 mph78%30.15 "Hg10 mi
11:00 PM72 °FPassing clouds.3 mph83%30.12 "HgN/A
10:30 PM73 °FPassing clouds.5 mph78%30.12 "HgN/A
10:00 PM73 °FClear.6 mph78%30.12 "Hg10 mi
9:30 PM73 °FPassing clouds.5 mph78%30.12 "HgN/A
9:00 PM73 °FClear.5 mph78%30.09 "Hg10 mi
8:30 PM73 °FClear.3 mph74%30.09 "Hg10 mi
8:00 PM75 °FSunny.5 mph69%30.09 "Hg10 mi
7:30 PM75 °FPassing clouds.6 mph74%30.09 "HgN/A
7:00 PM75 °FPassing clouds.8 mph69%30.09 "HgN/A
6:30 PM77 °FPassing clouds.8 mph65%30.09 "HgN/A
6:00 PM77 °FPassing clouds.8 mph65%30.09 "HgN/A
5:30 PM77 °FPassing clouds.10 mph65%30.07 "HgN/A
4:30 PM79 °FPassing clouds.9 mph58%30.09 "HgN/A
4:00 PM81 °FPassing clouds.9 mph51%30.09 "HgN/A
3:30 PM81 °FPassing clouds.10 mph51%30.09 "HgN/A
3:00 PM79 °FPassing clouds.10 mph54%30.09 "HgN/A
Weather by CustomWeather, © 2016

See weather overviewHow to use our weather pages